FW7970 Weather Reports


Display with metric or nautical units.
time (UTC)temp
F
wind
direction
speed
MPH
gust
MPH
rain 1hr
in
rain 24hr
in
rain mn
in
humidity
%
barometer
mb
20260510175841 69 302 1.0 2.0 0.00 0.00 0.00 42 1020.9
20260510175337 70 92 1.0 2.0 0.00 0.00 0.00 41 1020.9
20260510174833 69 347 3.0 5.0 0.00 0.00 0.00 41 1020.3
20260510174331 69 226 1.0 1.0 0.00 0.00 0.00 37 1020.7
20260510173827 69 355 2.0 3.0 0.00 0.00 0.00 42 1020.7
20260510173323 69 36 2.0 3.0 0.00 0.00 0.00 46 1020.6
20260510172819 69 327 1.0 2.0 0.00 0.00 0.00 41 1020.8
20260510172315 68 73 2.0 3.0 0.00 0.00 0.00 41 1020.7
20260510171812 68 111 2.0 3.0 0.00 0.00 0.00 44 1020.5
20260510171309 68 327 0.0 1.0 0.00 0.00 0.00 46 1020.6
20260510170806 68 112 3.0 5.0 0.00 0.00 0.00 42 1020.1
20260510170302 67 125 4.0 5.0 0.00 0.00 0.00 41 1020.6
20260510165752 69 347 1.0 2.0 0.00 0.00 0.00 44 1020.6
20260510165249 68 180 2.0 2.0 0.00 0.00 0.00 40 1020.6
20260510164746 68 96 2.0 2.0 0.00 0.00 0.00 44 1020.2
20260510164243 68 15 1.0 2.0 0.00 0.00 0.00 43 1020.4
20260510163738 67 358 1.0 1.0 0.00 0.00 0.00 43 1020.4
20260510163234 68 106 4.0 6.0 0.00 0.00 0.00 44 1020.3
20260510162733 67 96 5.0 7.0 0.00 0.00 0.00 43 1020.4
20260510162232 68 101 2.0 3.0 0.00 0.00 0.00 43 1020.6
20260510161727 69 333 2.0 2.0 0.00 0.00 0.00 43 1020.7
20260510161223 67 131 2.0 3.0 0.00 0.00 0.00 45 1020.7
20260510160720 67 136 3.0 5.0 0.00 0.00 0.00 44 1020.5
20260510160215 66 124 2.0 2.0 0.00 0.00 0.00 46 1020.4
20260510155712 67 180 1.0 1.0 0.00 0.00 0.00 46 1020.3
20260510155208 65 99 1.0 1.0 0.00 0.00 0.00 46 1020.2
20260510154703 66 205 3.0 7.0 0.00 0.00 0.00 44 1020.1
20260510154159 66 29 2.0 3.0 0.00 0.00 0.00 47 1020.4
20260510153654 66 22 0.0 0.0 0.00 0.00 0.00 50 1020.2
20260510153151 65 72 0.0 1.0 0.00 0.00 0.00 51 1020.3
20260510152648 65 39 0.0 1.0 0.00 0.00 0.00 49 1020.4
20260510152144 65 115 4.0 6.0 0.00 0.00 0.00 47 1020.4
20260510151640 65 335 1.0 1.0 0.00 0.00 0.00 51 1020.6
20260510151139 65 302 2.0 5.0 0.00 0.00 0.00 47 1020.7
20260510150634 66 146 3.0 3.0 0.00 0.00 0.00 48 1020.6
20260510150130 64 59 0.0 1.0 0.00 0.00 0.00 54 1020.5
20260510145626 63 81 1.0 2.0 0.00 0.00 0.00 51 1020.8
20260510145123 63 20 0.0 1.0 0.00 0.00 0.00 51 1020.8
20260510144619 63 95 1.0 2.0 0.00 0.00 0.00 53 1020.4
20260510144115 64 199 3.0 5.0 0.00 0.00 0.00 48 1020.4
20260510143611 64 54 1.0 1.0 0.00 0.00 0.00 47 1020.6
20260510143108 65 84 1.0 1.0 0.00 0.00 0.00 51 1020.4
20260510142604 64 47 0.0 0.0 0.00 0.00 0.00 53 1020.4
20260510142101 65 64 3.0 5.0 0.00 0.00 0.00 50 1020.2
20260510141558 64 28 1.0 1.0 0.00 0.00 0.00 52 1020.1
20260510141056 63 1 0.0 1.0 0.00 0.00 0.00 58 1019.9
20260510140551 64 93 1.0 2.0 0.00 0.00 0.00 56 1019.7
20260510140051 63 356 1.0 1.0 0.00 0.00 0.00 57 1019.9
20260510135547 63 148 4.0 5.0 0.00 0.00 0.00 57 1019.8
20260510135043 62 17 0.0 1.0 0.00 0.00 0.00 59 1019.9
20260510134540 61 55 1.0 2.0 0.00 0.00 0.00 59 1019.7
20260510134037 60 242 0.0 1.0 0.00 0.00 0.00 63 1019.5
20260510133533 60 351 1.0 1.0 0.00 0.00 0.00 66 1019.3
20260510133029 59 197 0.0 1.0 0.00 0.00 0.00 64 1019.1
20260510132526 58 22 0.0 0.0 0.00 0.00 0.00 65 1019.2
20260510132023 58 69 1.0 2.0 0.00 0.00 0.00 64 1019.1
20260510131521 58 33 1.0 1.0 0.00 0.00 0.00 64 1018.7
20260510131018 58 40 0.0 1.0 0.00 0.00 0.00 68 1018.9
20260510130514 58 98 2.0 2.0 0.00 0.00 0.00 65 1018.6
20260510130012 58 125 2.0 2.0 0.00 0.00 0.00 64 1018.8
20260510125508 58 280 1.0 2.0 0.00 0.00 0.00 71 1018.7
20260510125004 58 58 1.0 1.0 0.00 0.00 0.00 69 1018.7
20260510124501 58 22 0.0 0.0 0.00 0.00 0.00 70 1018.5
20260510123958 57 163 4.0 7.0 0.00 0.00 0.00 66 1018.6
20260510123453 57 3 0.0 0.0 0.00 0.00 0.00 70 1018.5
20260510122950 58 24 2.0 3.0 0.00 0.00 0.00 72 1018.4
20260510122445 58 85 1.0 2.0 0.00 0.00 0.00 71 1018.0
20260510121941 58 31 0.0 0.0 0.00 0.00 0.00 75 1018.0
20260510121439 58 81 2.0 2.0 0.00 0.00 0.00 74 1017.6
20260510120936 57 348 1.0 1.0 0.00 0.00 0.00 75 1017.9
20260510120433 57 174 1.0 1.0 0.00 0.00 0.00 79 1017.9
20260510115929 57 47 3.0 5.0 0.00 0.00 0.00 78 1017.9
20260510115426 57 45 1.0 1.0 0.00 0.00 0.00 79 1017.8
20260510114922 57 114 0.0 1.0 0.00 0.00 0.00 82 1017.8
20260510114419 57 30 0.0 0.0 0.00 0.00 0.00 83 1017.6
20260510113914 57 256 1.0 1.0 0.00 0.00 0.00 81 1017.6
20260510113410 57 325 1.0 1.0 0.00 0.00 0.00 83 1017.3
20260510112908 57 17 0.0 0.0 0.00 0.00 0.00 85 1017.6
20260510112405 57 10 0.0 0.0 0.00 0.00 0.00 85 1017.4
20260510111901 57 21 0.0 0.0 0.00 0.00 0.00 84 1017.5
20260510111357 57 7 0.0 0.0 0.00 0.00 0.00 86 1017.5
20260510110852 57 87 1.0 2.0 0.00 0.00 0.00 88 1017.5
20260510110349 57 355 0.0 0.0 0.00 0.00 0.00 90 1017.3
20260510105845 58 342 0.0 0.0 0.00 0.00 0.00 89 1017.3
20260510105345 58 347 0.0 0.0 0.00 0.00 0.00 90 1017.0
20260510104841 58 10 0.0 0.0 0.00 0.00 0.00 89 1016.9
20260510104338 59 5 0.0 0.0 0.00 0.00 0.00 89 1016.9
20260510103835 59 32 0.0 0.0 0.00 0.00 0.00 87 1016.7
20260510103332 59 45 0.0 1.0 0.00 0.00 0.00 87 1016.8
20260510102827 59 0 0.0 0.0 0.00 0.00 0.00 88 1016.9
20260510102323 58 0 0.0 0.0 0.00 0.00 0.00 88 1016.8
20260510101821 58 1 0.0 0.0 0.00 0.00 0.00 88 1016.6
20260510101319 58 1 0.0 0.0 0.00 0.00 0.00 88 1016.6
20260510100814 58 3 0.0 1.0 0.00 0.00 0.00 88 1016.4
20260510100312 58 5 0.0 0.0 0.00 0.00 0.00 88 1016.3
20260510095808 58 5 0.0 0.0 0.00 0.00 0.00 88 1016.2
20260510095305 58 12 0.0 0.0 0.00 0.00 0.00 88 1015.8
20260510094757 58 24 0.0 0.0 0.00 0.00 0.00 88 1015.9
20260510094252 58 30 0.0 0.0 0.00 0.00 0.00 88 1015.7
20260510093748 59 35 0.0 0.0 0.00 0.00 0.00 87 1015.6
20260510093246 59 358 0.0 0.0 0.00 0.00 0.00 88 1015.8
20260510092742 59 10 0.0 0.0 0.00 0.00 0.00 87 1015.8
20260510092237 59 40 0.0 0.0 0.00 0.00 0.00 86 1015.5
20260510091733 59 45 0.0 0.0 0.00 0.00 0.00 86 1015.7
20260510091231 59 62 1.0 1.0 0.00 0.00 0.00 86 1015.5
20260510090726 59 43 0.0 1.0 0.00 0.00 0.00 86 1015.6
20260510090224 59 345 0.0 0.0 0.00 0.00 0.00 87 1015.4
20260510085719 59 345 0.0 0.0 0.00 0.00 0.00 86 1015.4
20260510085214 59 36 0.0 0.0 0.00 0.00 0.00 86 1015.3
20260510084710 59 42 0.0 1.0 0.00 0.00 0.00 85 1015.1
20260510084208 60 94 2.0 2.0 0.00 0.00 0.00 85 1014.8
20260510083704 60 41 0.0 1.0 0.00 0.00 0.00 85 1015.0
20260510083201 60 13 0.0 1.0 0.00 0.00 0.00 85 1015.1
20260510082656 60 331 0.0 0.0 0.00 0.00 0.00 85 1015.1
20260510082153 60 14 0.0 0.0 0.00 0.00 0.00 85 1015.2
20260510081647 60 29 0.0 0.0 0.00 0.00 0.00 85 1015.3
20260510081143 59 38 0.0 0.0 0.00 0.00 0.00 86 1015.1
20260510080643 59 37 0.0 0.0 0.00 0.00 0.00 86 1015.2
20260510080140 59 52 0.0 1.0 0.00 0.00 0.00 85 1014.8
20260510075637 59 39 0.0 0.0 0.00 0.00 0.00 85 1014.6
20260510075134 59 40 0.0 0.0 0.00 0.00 0.00 85 1014.4
20260510074631 59 39 0.0 0.0 0.00 0.00 0.00 85 1014.7
20260510074127 59 40 0.0 0.0 0.00 0.00 0.00 85 1014.6
20260510073623 59 41 0.0 0.0 0.00 0.00 0.00 85 1014.5
20260510073120 60 43 0.0 0.0 0.00 0.00 0.00 85 1014.3
20260510072616 60 43 0.0 0.0 0.00 0.00 0.00 83 1014.4
20260510072113 60 46 0.0 0.0 0.00 0.00 0.00 82 1014.5
20260510071608 60 47 0.0 0.0 0.00 0.00 0.00 82 1014.4
20260510071106 61 57 0.0 0.0 0.00 0.00 0.00 81 1014.2
20260510070558 61 43 0.0 0.0 0.00 0.00 0.00 81 1014.3
20260510070055 61 48 1.0 1.0 0.00 0.00 0.00 80 1014.4
20260510065551 61 54 0.0 0.0 0.00 0.00 0.00 80 1014.2
20260510065047 62 65 0.0 1.0 0.00 0.00 0.00 79 1014.2
20260510064544 61 23 0.0 1.0 0.00 0.00 0.00 79 1014.2
20260510064040 61 51 1.0 1.0 0.00 0.00 0.00 78 1014.1
20260510063537 61 30 0.0 1.0 0.00 0.00 0.00 78 1014.3
20260510063035 61 4 0.0 0.0 0.00 0.00 0.00 78 1014.4
20260510062530 62 4 0.0 0.0 0.00 0.00 0.00 77 1014.2
20260510062026 62 342 0.0 0.0 0.00 0.00 0.00 77 1014.3
20260510061522 63 341 0.0 0.0 0.00 0.00 0.00 73 1014.3
20260510061019 63 341 0.0 0.0 0.00 0.00 0.00 71 1014.3
20260510060516 64 341 0.0 0.0 0.00 0.00 0.00 69 1014.1
20260510060012 64 341 0.0 0.0 0.00 0.00 0.00 68 1013.9
20260510055508 64 341 0.0 0.0 0.00 0.00 0.00 68 1013.9
20260510055006 63 342 0.0 0.0 0.00 0.00 0.00 69 1014.1
20260510054502 63 342 0.0 0.0 0.00 0.00 0.00 72 1014.0
20260510053957 63 342 0.0 0.0 0.00 0.00 0.00 73 1013.8
20260510053452 64 341 0.0 0.0 0.00 0.00 0.00 69 1013.8
20260510052948 64 341 0.0 0.0 0.00 0.00 0.00 69 1014.2
20260510052444 64 341 0.0 0.0 0.00 0.00 0.00 69 1014.1
20260510051941 65 341 0.0 0.0 0.00 0.00 0.00 68 1014.1
20260510051437 65 341 0.0 0.0 0.00 0.00 0.00 66 1014.0
20260510050933 65 341 0.0 0.0 0.00 0.00 0.00 66 1013.9
20260510050430 65 341 0.0 0.0 0.00 0.00 0.00 65 1013.7
20260510045928 65 341 0.0 0.0 0.00 0.01 0.01 64 1013.6
20260510045425 65 341 0.0 0.0 0.00 0.01 0.01 64 1013.6
20260510044921 65 341 0.0 0.0 0.00 0.01 0.01 65 1013.5
20260510044418 65 341 0.0 0.0 0.00 0.01 0.01 65 1013.5
20260510043915 65 341 0.0 0.0 0.00 0.01 0.01 64 1013.5
20260510043411 64 341 0.0 0.0 0.00 0.01 0.01 65 1013.4
20260510042909 65 341 0.0 0.0 0.00 0.01 0.01 65 1013.4
20260510042405 65 341 0.0 0.0 0.00 0.01 0.01 66 1013.1
20260510041901 65 342 0.0 0.0 0.00 0.01 0.01 67 1013.2
20260510041358 65 342 0.0 0.0 0.00 0.01 0.01 65 1013.2
20260510040855 65 342 0.0 0.0 0.00 0.01 0.01 65 1013.4
20260510040352 65 342 0.0 0.0 0.00 0.01 0.01 66 1013.0
20260510035848 65 342 0.0 0.0 0.00 0.01 0.01 65 1013.1
20260510035344 66 342 0.0 0.0 0.00 0.01 0.01 65 1013.1
20260510034839 66 342 0.0 0.0 0.00 0.01 0.01 65 1013.0
20260510034338 66 342 0.0 0.0 0.00 0.01 0.01 66 1013.1
20260510033834 66 328 0.0 0.0 0.00 0.01 0.01 65 1013.1
20260510033330 65 52 0.0 0.0 0.00 0.01 0.01 70 1013.1
20260510032827 65 52 0.0 0.0 0.00 0.01 0.01 70 1012.9
20260510032324 64 12 0.0 0.0 0.00 0.01 0.01 76 1013.2
20260510031820 64 331 0.0 0.0 0.00 0.01 0.01 74 1012.9
20260510031315 64 320 4.0 6.0 0.00 0.01 0.01 74 1012.8
20260510030809 68 351 2.0 2.0 0.00 0.01 0.01 58 1012.4
20260510030306 67 335 1.0 1.0 0.00 0.01 0.01 60 1011.7
20260510025804 67 337 0.0 0.0 0.00 0.01 0.01 63 1011.7
20260510025301 67 333 0.0 0.0 0.00 0.01 0.01 61 1012.0
20260510024757 68 319 0.0 1.0 0.00 0.01 0.01 61 1011.7
20260510024254 68 333 0.0 0.0 0.00 0.01 0.01 59 1011.4
20260510023749 68 338 0.0 0.0 0.00 0.01 0.01 60 1011.3
20260510023242 69 338 0.0 0.0 0.00 0.01 0.01 57 1011.5
20260510022737 70 325 1.0 1.0 0.00 0.01 0.01 56 1011.3
20260510022232 70 283 1.0 2.0 0.00 0.01 0.01 55 1011.3
20260510021726 70 330 1.0 1.0 0.00 0.01 0.01 54 1011.0
20260510021225 70 325 0.0 0.0 0.00 0.01 0.01 54 1010.9
20260510020724 71 346 0.0 0.0 0.00 0.01 0.01 53 1010.8
20260510020220 71 12 0.0 1.0 0.00 0.01 0.01 54 1010.7
20260510015716 71 17 1.0 1.0 0.00 0.01 0.01 51 1010.8
20260510015212 70 332 0.0 0.0 0.00 0.01 0.01 53 1010.6
20260510014708 71 341 0.0 1.0 0.00 0.01 0.01 53 1010.5
20260510014205 71 341 0.0 0.0 0.00 0.01 0.01 53 1010.4
20260510013700 71 339 0.0 0.0 0.00 0.01 0.01 53 1010.3
20260510013156 71 337 0.0 0.0 0.00 0.01 0.01 52 1010.5
20260510012656 71 333 0.0 1.0 0.00 0.01 0.01 53 1010.3
20260510012151 71 332 0.0 0.0 0.00 0.01 0.01 52 1010.4
20260510011647 71 314 0.0 0.0 0.00 0.01 0.01 51 1010.1
20260510011143 72 333 0.0 0.0 0.00 0.01 0.01 51 1010.1
20260510010638 71 341 0.0 0.0 0.00 0.01 0.01 51 1010.1
20260510010136 72 314 0.0 1.0 0.00 0.01 0.01 54 1010.1
20260510005632 72 321 1.0 2.0 0.00 0.01 0.01 51 1009.9
20260510005129 72 343 0.0 1.0 0.00 0.01 0.01 50 1010.2
20260510004627 71 327 1.0 1.0 0.00 0.01 0.01 50 1010.0
20260510004125 72 356 0.0 0.0 0.00 0.01 0.01 51 1010.0
20260510003622 73 356 0.0 0.0 0.00 0.01 0.01 50 1009.9
20260510003118 73 356 0.0 0.0 0.00 0.01 0.01 50 1009.7
20260510002612 73 336 0.0 0.0 0.00 0.01 0.01 50 1010.0
20260510002109 74 332 0.0 0.0 0.00 0.01 0.01 49 1009.8
20260510001607 74 332 0.0 0.0 0.00 0.01 0.01 49 1009.9
20260510001106 75 326 0.0 0.0 0.00 0.01 0.01 48 1009.9
20260510000605 75 326 0.0 1.0 0.00 0.01 0.01 46 1009.9
20260509235559 76 319 0.0 0.0 0.00 0.01 0.01 49 1010.0
20260509235056 77 314 0.0 0.0 0.00 0.01 0.01 52 1009.8
20260509234552 76 314 0.0 0.0 0.00 0.01 0.01 50 1010.1
20260509234050 76 312 0.0 0.0 0.00 0.01 0.01 49 1009.7
20260509233547 76 312 0.0 0.0 0.00 0.01 0.01 50 1009.8
20260509233044 75 314 0.0 0.0 0.00 0.01 0.01 51 1009.7
20260509232541 76 313 0.0 0.0 0.00 0.01 0.01 51 1009.7
20260509232038 77 313 0.0 0.0 0.00 0.01 0.01 50 1009.7
20260509231534 78 312 0.0 0.0 0.00 0.01 0.01 49 1009.6
20260509231032 79 312 0.0 1.0 0.00 0.01 0.01 48 1009.7
20260509230528 79 326 0.0 1.0 0.00 0.01 0.01 49 1009.6
20260509230026 81 189 1.0 2.0 0.00 0.01 0.01 40 1009.9
20260509225521 82 311 1.0 1.0 0.00 0.01 0.01 42 1009.8
20260509225016 81 313 0.0 0.0 0.00 0.01 0.01 39 1009.7
20260509224512 79 329 0.0 0.0 0.00 0.01 0.01 45 1009.5
20260509224009 80 294 1.0 2.0 0.00 0.01 0.01 40 1009.6
20260509223506 82 327 2.0 2.0 0.00 0.01 0.01 36 1009.7
20260509223005 83 272 0.0 0.0 0.00 0.01 0.01 42 1009.7
20260509222459 83 25 0.0 0.0 0.00 0.01 0.01 41 1009.6
20260509221955 83 257 1.0 2.0 0.00 0.01 0.01 36 1009.4
20260509221451 83 279 1.0 1.0 0.00 0.01 0.01 39 1009.6
20260509220948 83 316 1.0 1.0 0.00 0.01 0.01 33 1009.5
20260509220444 83 318 1.0 1.0 0.00 0.01 0.01 35 1009.5
20260509215940 83 282 1.0 1.0 0.00 0.01 0.01 36 1009.7
20260509215435 84 332 1.0 1.0 0.00 0.01 0.01 31 1009.6
20260509214933 84 269 3.0 3.0 0.00 0.01 0.01 33 1009.8
20260509214430 84 298 0.0 1.0 0.00 0.01 0.01 38 1009.5
20260509213927 83 299 1.0 1.0 0.00 0.01 0.01 36 1009.6
20260509213422 83 295 2.0 2.0 0.00 0.01 0.01 32 1009.8
20260509212920 83 299 2.0 2.0 0.00 0.01 0.01 34 1009.8
20260509212418 83 307 2.0 2.0 0.00 0.01 0.01 38 1009.6
20260509211914 83 316 2.0 2.0 0.00 0.01 0.01 38 1009.7
20260509211409 84 312 2.0 2.0 0.00 0.01 0.01 33 1009.9
20260509210906 84 272 1.0 1.0 0.00 0.01 0.01 35 1009.9
20260509210403 83 266 2.0 3.0 0.00 0.01 0.01 36 1010.1
20260509205858 83 313 2.0 2.0 0.00 0.01 0.01 34 1010.1
20260509205353 84 255 1.0 2.0 0.00 0.01 0.01 37 1010.2
20260509204849 83 265 2.0 2.0 0.00 0.01 0.01 36 1010.2
20260509204345 82 262 1.0 2.0 0.00 0.01 0.01 39 1010.1
20260509203841 82 312 1.0 1.0 0.00 0.01 0.01 39 1010.2
20260509203333 83 292 2.0 2.0 0.00 0.01 0.01 39 1010.2
20260509202830 84 263 1.0 1.0 0.00 0.01 0.01 41 1010.3
20260509202326 82 331 1.0 1.0 0.00 0.01 0.01 41 1010.3
20260509201825 83 260 1.0 2.0 0.00 0.01 0.01 39 1010.5
20260509201322 83 252 2.0 2.0 0.00 0.01 0.01 43 1010.5
20260509200819 83 241 2.0 2.0 0.00 0.01 0.01 39 1010.5
20260509200314 82 253 2.0 2.0 0.00 0.01 0.01 40 1010.4
20260509195811 82 326 2.0 2.0 0.00 0.01 0.01 41 1010.4
20260509195307 82 321 1.0 2.0 0.00 0.01 0.01 43 1010.5
20260509194805 81 249 2.0 3.0 0.00 0.01 0.01 39 1010.5
20260509194302 82 300 1.0 1.0 0.00 0.01 0.01 44 1010.6
20260509193758 82 303 2.0 3.0 0.00 0.01 0.01 41 1010.6
20260509193252 81 293 2.0 2.0 0.00 0.01 0.01 43 1010.6
20260509192749 81 255 3.0 5.0 0.00 0.01 0.01 41 1010.4
20260509192244 81 274 3.0 3.0 0.00 0.01 0.01 45 1010.8
20260509191740 80 276 1.0 2.0 0.00 0.01 0.01 45 1010.6
20260509191236 80 284 3.0 3.0 0.00 0.01 0.01 47 1010.6
20260509190732 81 317 2.0 5.0 0.00 0.01 0.01 43 1010.8
20260509190229 81 306 1.0 1.0 0.00 0.01 0.01 47 1010.8
20260509185727 81 321 1.0 1.0 0.00 0.01 0.01 47 1010.8
20260509185223 80 348 2.0 5.0 0.00 0.01 0.01 52 1010.8
20260509184721 80 316 1.0 1.0 0.00 0.01 0.01 48 1010.8
20260509184218 80 294 1.0 2.0 0.00 0.01 0.01 47 1010.9
20260509183714 80 307 1.0 1.0 0.00 0.01 0.01 49 1010.9
20260509183209 80 264 2.0 2.0 0.00 0.01 0.01 46 1010.9
20260509182705 81 316 2.0 2.0 0.00 0.01 0.01 47 1010.7
20260509182203 80 262 1.0 2.0 0.00 0.01 0.01 48 1010.8
20260509181700 80 303 1.0 1.0 0.00 0.01 0.01 46 1010.8
20260509181158 80 249 2.0 2.0 0.00 0.01 0.01 44 1010.7
20260509180654 80 249 2.0 3.0 0.00 0.01 0.01 47 1011.0
20260509180150 79 340 1.0 1.0 0.00 0.01 0.01 52 1010.8